Location: Mapua
(41.2500°S, 173.1000°E)
Time: 01:26:06
(UTC+13:00)

N. Korean satellite - Visible Passes

Search period start: 22 October 2017 00:00
Search period end: 01 November 2017 00:00
Orbit: 459 x 517 km, 97.2° (Epoch: 21 October)

Date Brightness Start Highest point End Pass type
(mag) Time Alt. Az. Time Alt. Az. Time Alt. Az.
23 Oct 10.1 21:30:31 10° SSW 21:32:31 14° WSW 21:34:28 10° W visible
24 Oct 9.3 21:06:17 10° SSW 21:09:24 24° WSW 21:12:27 10° NW visible
25 Oct 7.9 20:42:32 10° S 20:46:12 46° WSW 20:49:44 10° NNW visible
27 Oct 10.1 21:30:44 10° SW 21:32:38 13° WSW 21:34:30 10° W visible
28 Oct 9.4 21:06:26 10° SSW 21:09:30 24° WSW 21:12:30 10° NW visible
29 Oct 8.0 20:42:40 10° S 20:46:17 45° WSW 20:49:46 10° NNW visible
31 Oct 10.1 21:30:54 10° SW 21:32:41 13° WSW 21:34:27 10° W visible
